Location: Peyton Hall Observatory
(40.3466°N, 74.6516°W)
Time: 11:24:33
(UTC-04:00)

ISS - All Passes

Search period start: 25 May 2015 00:00
Search period end: 04 June 2015 00:00
Orbit: 399 x 404 km, 51.6° (Epoch: 25 May)

Date Brightness Start Highest point End Pass type
(mag) Time Alt. Az. Time Alt. Az. Time Alt. Az.
25 May - 00:58:18 10° WSW 01:01:33 72° NW 01:04:49 10° NE visible
25 May - 02:36:14 10° WNW 02:38:26 17° NNW 02:40:38 10° NNE visible
25 May - 04:14:39 10° NNW 04:15:53 12° N 04:17:08 10° NNE visible
25 May - 05:50:33 10° NNW 05:53:13 23° NNE 05:55:54 10° ENE daylight
25 May - 07:26:38 10° WNW 07:29:51 55° SW 07:33:02 10° SE daylight
26 May - 00:05:12 10° SW 00:08:22 55° SE 00:11:34 10° ENE visible
26 May - 01:42:20 10° WNW 01:44:59 22° NNW 01:47:39 10° NNE visible
26 May - 03:21:05 10° NNW 03:22:19 12° N 03:23:34 10° NNE visible
26 May - 04:57:34 10° NNW 04:59:46 17° NNE 05:02:00 10° ENE visible
26 May - 06:33:23 10° NW 06:36:39 73° NE 06:39:55 10° ESE daylight
26 May - 08:11:24 10° WSW 08:12:43 12° SW 08:13:54 10° SSW daylight
26 May - 23:12:28 10° SSW 23:15:15 27° SE 23:18:04 10° ENE night (unlit)
27 May - 00:48:35 10° W 00:51:36 34° NNW 00:54:38 10° NE visible
27 May - 02:27:10 10° NW 02:28:46 13° N 02:30:21 10° NNE visible
27 May - 04:04:33 10° NNW 04:06:15 13° N 04:07:59 10° NE visible
27 May - 05:40:16 10° NW 05:43:22 39° NNE 05:46:27 10° ESE daylight
27 May - 07:16:59 10° W 07:19:39 23° SW 07:22:17 10° S daylight
27 May - 22:20:29 10° SSE 22:22:11 14° SE 22:23:59 10° E night (unlit)
27 May - 23:55:04 10° WSW 23:58:17 61° NW 00:01:31 10° NE visible
28 May - 01:33:09 10° NW 01:35:14 16° NNW 01:37:17 10° NNE visible
28 May - 03:11:23 10° NNW 03:12:40 12° N 03:13:59 10° NNE visible
28 May - 04:47:13 10° NNW 04:49:58 25° NNE 04:52:45 10° E visible
28 May - 06:23:22 10° WNW 06:26:32 46° SW 06:29:40 10° SSE daylight
28 May - 23:01:50 10° SW 23:05:03 67° SE 23:08:16 10° ENE visible
29 May - 00:39:10 10° WNW 00:41:43 21° NNW 00:44:16 10° NNE visible
29 May - 02:17:53 10° NNW 02:19:05 11° N 02:20:17 10° NNE visible
29 May - 03:54:11 10° NNW 03:56:30 18° NNE 03:58:51 10° ENE visible
29 May - 05:30:02 10° NW 05:33:19 86° NE 05:36:35 10° SE daylight
29 May - 22:08:57 10° SSW 22:11:51 32° SE 22:14:49 10° ENE night (unlit)
29 May - 23:45:20 10° W 23:48:16 30° NNW 23:51:13 10° NE visible
30 May - 01:24:00 10° NW 01:25:29 12° N 01:26:57 10° NNE visible
30 May - 03:01:09 10° NNW 03:02:57 14° NNE 03:04:48 10° NE visible
30 May - 04:36:52 10° NW 04:40:01 44° NNE 04:43:10 10° ESE visible
30 May - 06:13:46 10° W 06:16:14 19° SW 06:18:38 10° S daylight
30 May - 21:16:40 10° S 21:18:44 16° SE 21:20:53 10° E visible
30 May - 22:51:43 10° WSW 22:54:54 52° NNW 22:58:05 10° NE visible
31 May - 00:29:56 10° NW 00:31:53 15° NNW 00:33:49 10° NNE visible
31 May - 02:07:59 10° NNW 02:09:21 12° N 02:10:44 10° NNE visible
31 May - 03:43:45 10° NW 03:46:36 27° NNE 03:49:28 10° E visible
31 May - 05:20:01 10° WNW 05:23:05 38° SW 05:26:08 10° SSE daylight
31 May - 21:58:21 10° SW 22:01:35 80° SE 22:04:50 10° NE visible
31 May - 23:35:54 10° WNW 23:38:20 19° NNW 23:40:46 10° NNE visible
01 Jun - 01:14:33 10° NNW 01:15:43 11° N 01:16:53 10° NNE visible
01 Jun - 02:50:41 10° NNW 02:53:06 19° NNE 02:55:33 10° ENE visible
01 Jun - 04:26:36 10° NW 04:29:52 81° SW 04:33:07 10° SE visible
01 Jun - 21:05:20 10° SSW 21:08:21 37° SE 21:11:23 10° ENE visible
01 Jun - 22:41:58 10° W 22:44:49 27° NNW 22:47:41 10° NE visible
02 Jun - 00:20:41 10° NNW 00:22:04 12° N 00:23:27 10° NNE visible
02 Jun - 01:57:36 10° NNW 01:59:32 15° NNE 02:01:30 10° NE visible
02 Jun - 03:33:20 10° NW 03:36:32 51° NNE 03:39:44 10° ESE visible
02 Jun - 05:10:30 10° W 05:12:42 17° SW 05:14:49 10° S daylight
02 Jun - 20:12:50 10° S 20:15:10 19° SE 20:17:35 10° E daylight
02 Jun - 21:48:14 10° WSW 21:51:23 45° NNW 21:54:31 10° NE visible
02 Jun - 23:26:35 10° NW 23:28:26 14° NNW 23:30:15 10° NNE visible
03 Jun - 01:04:27 10° NNW 01:05:54 12° N 01:07:22 10° NE visible
03 Jun - 02:40:11 10° NW 02:43:06 30° NNE 02:46:03 10° E visible
03 Jun - 04:16:33 10° WNW 04:19:31 32° SW 04:22:28 10° SSE visible
03 Jun - 20:54:46 10° SW 20:58:00 87° NW 21:01:16 10° NE visible
03 Jun - 22:32:29 10° WNW 22:34:49 18° NNW 22:37:08 10° NNE visible
